Miles City, MT

4:46 PM MDT on July 23, 2016 (GMT -0600)
Wiley

Weather History for KMLS - April, 2013

Change the Weather History Date:

Saturday, April 6, 2013

  Actual Average Record
Temperature  
Mean Temperature 52 °F 43 °F  
Max Temperature 67 °F 55 °F 84 °F (1969)
Min Temperature 37 °F 30 °F 14 °F (1997)
Degree Days  
Heating Degree Days 13 22  
Month to date heating degree days 100 139  
Since 1 July heating degree days 6270 6814  
Cooling Degree Days 0 0  
Month to date cooling degree days 0 0  
Year to date cooling degree days 0 0  
Growing Degree Days 2 (Base 50)    
Moisture  
Dew Point 35 °F    
Average Humidity 57    
Maximum Humidity 89    
Minimum Humidity 24    
Precipitation  
Precipitation 0.01 in 0.03 in 1.33 in (2006)
Month to date precipitation 0.05 0.19  
Year to date precipitation 0.61 1.34  
Sea Level Pressure  
Sea Level Pressure 29.75 in    
Wind  
Wind Speed 9 mph (NW)    
Max Wind Speed 20 mph    
Max Gust Speed 24 mph    
Visibility 10 miles    
Events Rain    
T = Trace of Precipitation, MM = Missing Value Source: NWS Daily Summary

Daily Weather History Graph

Daily Weather History Graph

Search for Another Location

Airport or City:

Trip Planner

Search our weather history database for the weather conditions in past years. The results will help you decide how hot, cold, wet, or windy it might be!

Date:

Astronomy

Apr. 06, 2013 Rise Set
Actual Time 6:32 AM MDT 7:39 PM MDT
Civil Twilight 6:02 AM MDT 8:10 PM MDT
Nautical Twilight 5:25 AM MDT 8:47 PM MDT
Astronomical Twilight 4:46 AM MDT 9:26 PM MDT
Moon 4:30 AM MDT (4/6) 4:00 PM MDT (4/6)
Length of Visible Light 14h 08m
Length of Day
13h 06m
Waning Crescent, 14% of the Moon is Illuminated
Apr 6
Waning Crescent
Apr 10
New
Apr 18
First Quarter
Apr 25
Full
May 2
Last Quarter

Hourly Weather History & Observations

Time (MDT) Temp. Windchill Dew Point Humidity Pressure Visibility Wind Dir Wind Speed Gust Speed Precip Events Conditions
12:53 AM 46.0 °F 43.9 °F 41.0 °F 83% 29.70 in 10.0 mi NNW 4.6 mph - N/A   Clear
1:53 AM 45.0 °F 40.1 °F 39.9 °F 82% 29.71 in 10.0 mi West 9.2 mph - N/A   Mostly Cloudy
2:53 AM 43.0 °F 37.7 °F 39.9 °F 89% 29.73 in 10.0 mi West 9.2 mph - N/A   Overcast
3:53 AM 44.1 °F 41.5 °F 37.9 °F 79% 29.75 in 10.0 mi West 4.6 mph - N/A   Scattered Clouds
4:53 AM 41.0 °F 36.4 °F 36.0 °F 82% 29.77 in 10.0 mi WNW 6.9 mph - N/A   Clear
5:53 AM 41.0 °F 36.4 °F 34.0 °F 76% 29.78 in 10.0 mi WNW 6.9 mph - N/A   Clear
6:53 AM 37.9 °F 32.1 °F 32.0 °F 79% 29.80 in 10.0 mi WNW 8.1 mph - N/A   Clear
7:53 AM 43.0 °F 38.2 °F 35.1 °F 74% 29.80 in 10.0 mi West 8.1 mph - N/A   Clear
8:53 AM 50.0 °F - 36.0 °F 59% 29.79 in 10.0 mi West 9.2 mph - N/A   Clear
9:53 AM 55.9 °F - 34.0 °F 44% 29.78 in 10.0 mi West 10.4 mph - N/A   Clear
10:53 AM 60.1 °F - 33.1 °F 36% 29.78 in 10.0 mi WNW 11.5 mph - N/A   Clear
11:53 AM 62.1 °F - 32.0 °F 32% 29.77 in 10.0 mi Variable 6.9 mph 20.7 mph N/A   Partly Cloudy
12:53 PM 62.1 °F - 32.0 °F 32% 29.76 in 10.0 mi NW 9.2 mph - N/A   Mostly Cloudy
1:53 PM 64.9 °F - 30.0 °F 27% 29.74 in 10.0 mi WNW 12.7 mph 20.7 mph N/A   Mostly Cloudy
2:53 PM 66.0 °F - 28.0 °F 24% 29.73 in 10.0 mi NW 12.7 mph - N/A   Scattered Clouds
3:53 PM 64.9 °F - 30.0 °F 27% 29.71 in 10.0 mi NW 9.2 mph - N/A   Clear
4:53 PM 66.0 °F - 30.0 °F 26% 29.71 in 10.0 mi NNW 8.1 mph - N/A   Partly Cloudy
5:53 PM 63.0 °F - 30.0 °F 29% 29.72 in 10.0 mi NNE 4.6 mph - N/A   Clear
6:53 PM 57.9 °F - 33.1 °F 39% 29.74 in 10.0 mi NE 17.3 mph - N/A   Mostly Cloudy
7:53 PM 54.0 °F - 36.0 °F 51% 29.74 in 10.0 mi ENE 11.5 mph - N/A   Mostly Cloudy
8:53 PM 52.0 °F - 37.0 °F 57% 29.76 in 10.0 mi NE 10.4 mph - N/A   Overcast
9:53 PM 50.0 °F - 36.0 °F 59% 29.75 in 10.0 mi ESE 4.6 mph - N/A   Overcast
10:53 PM 46.9 °F - 36.0 °F 66% 29.75 in 10.0 mi North 6.9 mph - 0.00 in   Overcast
11:53 PM 48.0 °F - 39.9 °F 74% 29.75 in 10.0 mi SW 4.6 mph - 0.01 in Rain Light Rain